Wind_Speed
16 17 17 17 18 17 16 13 11 10 11 13 13 13 12 12 12 13 13 15 16 12 8 9 11 13 13 11 11 13 15 14 15 16 17 17 16 16 16 16 16 15 16 17 18 20 21 23 24 24 24 23 22 22 22 22 23 23 24 25 26 27 28 30 31 33 34 35 37 37 38 39 39 39 39 39 39 39 39 40 40 40 40 40 41
16 16 17 17 17 16 15 14 11 11 12 13 14 13 12 11 12 13 13 14 14 10 7 8 11 13 14 12 10 15 17 16 17 16 17 17 16 16 16 16 16 16 16 17 20 21 23 24 24 24 23 23 22 22 22 23 24 24 26 27 28 30 31 33 34 36 37 37 38 38 39 39 39 40 41 41 40 40 40 40 41 41 41 41 41
16 16 15 16 16 15 15 14 12 12 12 13 13 14 13 13 13 13 14 13 13 10 9 10 13 13 14 11 10 16 19 17 17 16 16 17 17 17 17 17 16 17 18 19 21 23 24 24 24 24 23 23 23 23 24 24 26 27 29 30 31 33 34 35 36 37 38 38 39 39 40 40 40 41 41 42 42 42 41 41 41 41 41 41 41
17 16 16 16 16 15 14 13 12 12 13 13 14 15 15 15 15 14 14 15 14 12 13 15 16 14 15 13 11 17 21 18 17 16 16 17 17 17 17 17 17 18 19 20 22 23 24 24 23 24 23 23 24 25 26 27 28 30 31 32 34 35 36 37 37 38 39 39 40 40 40 40 40 40 41 41 42 42 42 42 41 41 41 41 41
16 16 16 16 15 15 14 13 13 13 14 14 15 15 16 17 16 16 15 16 16 15 16 16 14 14 18 16 15 19 20 17 16 15 16 17 17 17 17 18 19 20 21 22 22 23 23 23 23 23 24 25 25 27 28 29 30 32 33 34 35 36 37 38 38 39 40 40 40 40 40 40 40 40 40 40 41 41 42 42 43 42 42 42 41
16 15 15 15 14 15 14 14 14 14 14 15 16 16 17 17 16 16 16 17 17 16 16 14 13 17 19 16 17 19 18 16 15 16 16 17 17 17 18 19 20 22 23 24 23 23 23 23 24 24 25 26 27 28 29 31 32 33 34 35 36 37 37 38 39 39 39 39 39 39 39 39 40 40 40 41 42 42 43 43 44 44 44 44 43
15 15 14 15 14 15 14 14 13 14 14 14 15 16 17 17 16 16 16 18 16 14 13 13 15 20 18 15 17 17 16 15 16 16 16 16 16 17 18 19 21 22 23 24 24 23 23 24 25 26 26 27 28 29 30 32 33 33 34 35 36 37 37 38 38 38 38 38 38 38 39 40 41 42 43 44 45 46 46 46 47 47 47 47 46
14 14 14 15 15 15 14 13 13 13 13 13 14 16 16 16 16 16 17 18 16 13 11 13 16 20 17 15 15 15 15 15 15 16 15 15 16 17 18 19 20 21 22 22 22 23 24 25 26 27 27 28 29 30 31 32 33 34 35 35 36 36 36 37 37 37 37 37 38 40 41 43 45 46 48 49 50 50 51 51 51 51 51 51 50
14 13 14 15 15 15 15 14 13 13 13 13 14 15 15 15 15 16 17 17 15 11 11 14 18 18 15 14 14 15 15 14 14 14 14 15 16 16 17 18 19 19 19 20 21 23 25 26 27 28 29 29 30 30 31 32 33 34 34 34 35 35 36 36 36 36 37 39 41 43 46 47 49 51 52 53 54 54 55 55 55 55 55 55 54
13 13 14 15 16 16 16 16 15 14 13 14 15 15 16 16 15 16 16 16 13 10 12 17 18 16 14 13 14 15 14 14 13 13 14 15 16 16 16 16 17 17 18 19 21 23 24 26 27 28 29 30 30 31 32 32 33 33 33 34 35 35 35 35 36 37 40 42 45 48 50 52 53 55 56 56 57 57 57 57 57 57 57 57 57
13 13 15 16 17 17 17 17 16 16 15 15 15 15 16 16 16 15 14 14 13 13 17 19 17 15 13 13 14 15 15 13 12 13 14 15 16 17 17 17 17 18 19 21 22 24 25 26 26 27 28 29 30 31 31 32 32 33 34 34 34 34 34 35 37 40 42 45 48 50 52 54 55 56 57 58 58 58 58 58 57 57 56 57 57
14 15 16 17 18 18 18 17 17 17 16 15 15 15 16 16 16 15 14 15 15 17 19 18 16 14 12 12 14 15 14 12 12 13 14 16 17 17 18 18 19 20 21 22 24 25 25 26 26 27 28 29 29 30 31 31 32 33 33 34 33 34 35 37 39 42 45 47 50 52 53 54 55 56 56 56 56 56 56 57 57 56 54 54 53
15 16 17 17 17 17 17 17 17 17 17 16 15 14 16 17 17 17 16 16 17 18 18 16 14 12 11 12 13 14 13 12 13 14 15 16 16 17 18 19 20 21 22 24 25 25 25 26 26 27 28 29 29 30 30 31 32 32 32 32 32 33 35 38 41 44 47 49 51 52 53 54 55 55 54 53 52 53 53 54 54 54 52 51 50
15 16 16 16 17 17 17 17 17 16 16 16 15 15 16 17 19 19 17 16 17 17 16 15 13 10 10 11 12 13 13 13 14 14 15 16 16 16 17 19 20 22 23 24 25 25 26 26 27 28 28 29 29 30 30 30 30 30 30 30 31 34 36 40 43 46 48 50 51 53 54 55 55 53 52 50 50 50 51 50 50 50 49 48 47
14 15 16 16 17 17 18 18 17 17 16 16 15 16 17 18 19 19 17 15 15 15 14 14 12 9 10 11 12 12 12 13 14 15 15 16 16 17 18 19 21 22 23 24 24 25 26 27 27 28 29 29 29 29 30 29 29 29 29 30 32 35 38 41 44 47 49 50 52 53 54 55 53 51 49 48 48 47 48 48 47 46 44 42 41
14 15 15 16 17 18 18 18 18 18 17 16 16 17 18 19 19 18 16 14 14 15 14 12 10 8 9 11 12 12 13 13 14 15 15 16 17 17 19 20 21 22 23 23 25 25 26 27 28 29 29 29 29 29 29 28 28 28 29 31 33 35 38 42 45 48 50 51 52 54 55 53 51 48 47 47 48 46 46 46 46 43 39 36 34
15 15 16 16 17 18 18 18 18 18 18 17 17 18 18 20 21 18 15 14 15 14 12 10 8 7 10 12 13 13 13 14 14 14 15 16 17 18 19 21 21 22 23 24 25 26 27 28 29 29 29 28 28 28 28 27 28 28 29 31 33 36 39 43 46 49 50 52 53 55 54 51 48 46 45 45 46 46 46 45 44 42 37 34 33
15 16 16 16 17 17 17 18 18 19 19 19 18 19 19 20 20 16 14 15 15 12 9 8 7 8 11 13 13 13 13 14 14 14 15 16 17 18 20 21 21 22 23 24 25 26 27 28 28 28 28 28 28 27 27 27 27 28 29 31 34 37 40 44 47 49 51 52 54 54 52 49 46 45 45 44 45 46 46 44 41 39 37 35 35
16 16 16 16 16 17 17 19 19 20 20 20 20 19 18 20 18 15 15 15 13 10 8 8 8 10 13 14 14 13 13 13 14 15 16 17 17 18 19 20 21 22 23 25 26 27 28 28 28 28 27 27 27 27 27 27 27 28 29 32 35 38 40 43 46 49 51 53 54 54 52 49 46 45 44 44 44 44 45 44 39 37 36 35 35
16 15 15 16 17 17 18 20 21 21 21 21 20 19 18 17 15 14 15 14 12 9 7 9 10 12 14 14 13 13 13 13 14 15 16 17 18 19 19 20 21 23 24 26 27 28 28 28 28 27 27 27 27 27 27 27 27 28 29 32 35 38 40 42 45 48 51 53 54 54 52 49 46 45 45 45 44 43 43 43 40 36 35 35 35
14 14 15 16 18 19 19 20 22 22 22 22 21 18 15 14 14 15 15 13 11 9 8 10 13 14 14 13 13 13 12 13 14 15 17 18 19 19 20 21 22 24 25 27 28 28 29 29 28 28 28 28 28 27 27 27 27 28 29 33 36 38 40 42 44 47 50 52 54 54 52 49 46 45 45 45 45 44 43 44 42 39 36 35 34
14 14 16 17 19 20 20 20 21 22 23 22 21 17 13 14 16 15 14 12 10 9 10 12 14 14 14 13 13 12 12 13 14 16 17 19 20 20 21 22 23 25 26 27 28 29 29 29 29 28 28 28 27 27 27 27 27 28 30 33 36 38 40 41 43 46 49 52 54 54 52 49 46 45 45 45 46 46 45 45 46 45 40 36 34
15 16 17 19 20 21 20 20 21 23 22 21 19 17 14 15 16 13 11 11 10 10 11 12 13 14 13 13 12 12 13 14 15 16 18 19 20 21 22 23 25 26 27 28 29 29 29 29 29 28 27 27 27 27 27 27 27 28 31 34 37 38 40 41 43 45 48 51 53 54 52 49 46 45 45 45 46 46 46 46 47 47 44 40 35
16 17 18 20 21 21 21 20 21 21 20 17 16 15 14 15 13 11 10 11 11 11 11 12 13 13 13 12 11 12 13 15 16 18 19 20 21 22 23 25 26 27 28 29 29 30 29 29 28 28 27 27 26 26 26 27 27 29 32 35 38 39 40 41 43 45 47 50 53 53 52 49 47 45 45 45 46 46 46 47 47 46 45 42 38
17 19 20 21 21 21 21 20 20 19 17 14 12 12 13 13 11 10 11 12 12 12 12 13 13 13 12 11 11 12 14 16 18 19 21 21 22 23 24 26 27 28 29 29 30 30 30 29 29 28 27 27 26 27 27 27 28 30 33 37 39 40 40 41 42 44 46 49 51 53 52 50 47 45 44 45 45 46 46 47 48 47 45 43 40
18 20 21 21 21 21 20 19 19 17 15 12 11 12 12 10 10 12 13 13 12 12 13 13 13 13 12 11 12 13 16 18 19 21 22 22 23 24 25 26 28 29 30 30 30 30 30 30 29 28 27 27 26 27 28 28 30 32 35 38 39 40 40 41 42 44 46 47 49 51 51 50 47 44 43 44 44 45 46 47 48 48 46 44 42
20 21 21 21 20 20 21 20 17 15 14 13 12 12 11 10 10 12 13 12 12 12 13 13 12 12 12 12 13 15 17 19 21 22 23 23 23 24 26 27 28 29 30 30 30 31 31 30 29 28 28 27 27 27 28 30 32 34 37 38 39 40 40 41 42 43 45 46 47 50 51 49 47 45 43 42 43 44 45 47 48 48 47 46 44
20 21 21 20 19 18 20 19 15 13 13 13 13 12 11 10 10 11 11 11 11 11 12 12 12 12 12 13 14 17 19 21 22 23 24 24 25 25 26 28 29 30 31 31 31 31 31 30 29 28 28 28 27 28 30 32 33 35 37 38 39 40 40 40 41 42 44 45 46 48 49 49 47 45 43 42 42 42 44 46 47 47 47 47 45
21 21 21 19 16 16 16 14 11 10 10 10 10 10 9 10 10 10 10 10 10 11 11 12 12 12 13 14 16 18 21 22 24 24 25 25 26 27 28 29 30 31 31 31 31 32 31 30 30 29 29 28 29 29 31 32 34 36 37 38 39 39 40 40 41 42 43 44 44 46 47 48 47 45 43 42 41 42 43 44 45 47 47 47 46
21 20 19 16 14 13 12 9 7 7 7 9 9 8 8 9 9 9 9 9 10 11 11 12 12 13 14 16 18 20 22 24 25 25 25 26 27 29 30 31 31 32 32 32 32 32 32 31 30 30 30 30 30 31 32 33 34 36 37 38 38 39 40 40 40 41 42 42 43 44 45 47 47 46 44 42 42 42 42 43 44 46 46 47 46
19 18 16 12 10 10 9 7 6 7 8 8 8 8 8 8 8 8 8 9 10 11 12 13 14 15 16 18 21 22 24 25 25 25 26 27 29 31 32 32 32 32 32 32 33 32 31 31 30 30 30 31 31 32 33 34 34 36 37 38 38 39 39 40 40 40 41 42 42 42 43 45 46 46 45 44 43 43 43 43 44 45 46 46 47
17 15 12 9 8 9 10 10 9 8 8 7 7 7 7 7 7 8 9 10 11 12 13 14 16 17 19 21 22 23 24 25 25 25 26 28 30 32 32 32 32 32 32 33 32 31 31 31 30 30 31 31 32 32 33 34 35 35 36 38 38 39 39 40 40 40 40 41 41 41 42 44 45 46 46 46 45 44 44 43 44 44 45 46 46
14 13 10 9 9 11 12 12 10 8 7 7 7 7 6 7 8 9 10 11 12 13 15 16 18 19 21 22 23 24 24 25 26 26 28 29 31 32 33 33 33 32 32 32 32 31 31 30 30 30 31 32 32 33 34 35 36 36 36 37 38 38 39 40 40 40 40 41 41 40 41 42 44 46 47 47 46 46 45 44 44 44 45 46 46
12 11 11 10 10 12 12 12 9 7 7 7 7 7 7 9 10 10 11 12 13 15 16 18 19 20 21 23 23 24 25 26 27 28 29 31 32 33 34 34 33 32 32 32 31 31 30 31 31 31 31 31 32 33 34 35 36 37 37 37 37 38 39 40 40 40 40 41 41 40 40 42 43 45 46 47 47 47 46 45 44 44 44 45 46
11 11 11 11 11 12 12 10 8 8 7 7 7 8 9 11 11 11 12 14 15 16 17 18 20 21 22 24 25 26 27 27 28 29 31 32 32 33 34 34 33 32 32 32 31 31 31 32 32 32 31 32 33 34 35 35 35 36 37 37 38 38 39 40 40 40 40 41 41 40 40 41 43 44 46 47 47 47 47 46 45 44 44 44 45
11 11 11 10 10 12 12 10 8 8 8 8 9 10 11 12 13 13 14 15 16 17 18 20 21 22 24 25 27 28 28 29 30 31 31 31 31 32 33 33 33 32 32 32 31 32 32 33 33 32 31 32 34 35 35 35 35 35 36 37 38 39 39 40 40 40 40 41 40 40 40 41 42 43 45 46 47 48 48 47 46 44 44 44 45
10 11 10 9 11 13 12 10 9 9 9 10 11 12 13 14 14 15 16 17 18 19 20 21 22 24 25 27 28 29 31 33 33 32 30 29 30 31 32 32 32 32 32 31 32 32 33 33 33 32 32 33 34 35 35 35 35 35 36 37 38 39 40 40 40 40 40 41 40 40 40 40 41 42 44 46 47 48 49 48 47 45 44 44 44
11 11 10 9 12 14 12 10 9 10 11 12 13 14 15 16 16 17 17 18 19 20 21 22 23 25 26 28 29 29 32 33 31 28 28 29 30 31 30 30 31 31 31 31 32 33 33 33 33 32 32 33 34 35 34 34 34 35 36 37 38 39 40 40 40 40 40 40 40 40 40 40 40 42 43 45 47 49 50 50 48 46 45 44 44
11 11 10 11 13 14 12 10 11 12 13 14 15 16 17 17 17 18 18 19 19 20 22 23 24 26 27 28 28 29 30 30 27 25 26 28 29 30 29 29 30 31 31 32 32 33 33 33 32 32 33 34 34 35 34 34 34 34 35 37 38 39 40 40 40 40 40 40 40 40 40 39 40 41 43 45 47 49 50 51 50 47 45 44 44
12 12 11 12 14 15 13 12 13 14 15 16 16 17 17 18 18 18 18 19 19 21 22 24 25 26 27 27 28 28 29 29 28 27 27 28 29 29 29 29 30 31 32 32 32 33 33 33 32 32 33 33 34 34 34 34 34 35 35 36 37 38 39 40 40 41 40 40 40 40 39 39 40 41 43 45 47 49 50 51 50 49 46 44 44
13 13 13 14 15 15 14 14 15 16 16 17 17 17 18 18 17 18 18 19 20 21 23 25 26 26 26 27 28 29 29 29 29 28 28 29 29 29 29 30 31 32 32 33 32 32 33 33 32 32 32 33 33 33 34 34 35 35 35 35 37 38 40 41 41 41 40 39 40 40 39 39 40 41 42 44 46 48 50 51 51 50 47 45 45
14 14 14 15 16 16 16 16 16 17 17 17 17 17 18 18 18 18 19 20 21 23 25 26 27 27 27 28 28 29 30 29 28 28 28 29 29 29 30 30 31 32 33 33 32 32 33 33 33 32 32 32 33 33 33 34 34 35 36 36 37 38 40 41 40 40 39 39 39 40 39 39 40 41 42 44 46 48 50 52 52 51 48 46 46
15 16 16 16 16 17 17 16 17 17 18 17 17 18 18 18 19 19 20 22 23 24 26 27 27 27 28 28 29 29 30 29 28 28 28 29 30 30 31 31 32 32 33 32 32 32 33 33 33 33 32 32 32 32 33 33 34 35 36 36 37 38 40 40 39 39 39 39 39 40 40 40 40 41 42 43 45 47 50 51 52 51 49 48 47
16 17 17 17 17 17 17 18 18 19 19 18 19 19 19 19 20 21 22 23 24 26 27 27 27 28 29 29 30 30 30 30 29 29 29 30 31 31 31 32 32 32 32 32 32 33 33 33 33 33 32 32 32 32 33 34 35 36 36 37 37 39 40 40 40 40 40 40 40 40 41 40 40 41 41 43 44 46 49 51 51 51 50 49 47
18 18 18 18 18 18 19 19 20 20 20 20 20 20 20 20 21 22 23 24 25 27 27 28 28 29 30 30 31 31 31 30 30 30 30 31 32 32 32 32 32 32 32 32 33 33 33 34 33 33 32 32 32 32 33 35 36 36 37 38 39 39 40 40 40 40 41 41 41 41 41 40 40 40 41 42 44 46 48 49 50 50 49 49 48
19 20 20 19 19 19 20 21 21 21 21 21 21 22 22 22 22 23 24 25 26 27 28 29 30 31 31 32 32 32 32 31 31 31 32 32 33 33 33 33 33 32 32 33 33 33 34 34 34 33 33 32 32 33 34 36 38 38 39 40 41 41 41 41 41 41 42 43 42 41 40 39 39 39 39 41 42 44 46 48 48 49 49 49 48
21 21 21 20 20 21 21 23 23 23 22 22 22 23 23 23 24 25 26 26 27 28 30 31 32 32 33 33 33 33 33 32 32 32 33 33 33 33 33 34 34 33 32 33 34 34 34 35 35 35 34 34 34 35 37 38 40 41 42 43 43 43 43 42 43 43 44 43 42 40 39 39 39 38 38 39 41 42 45 46 47 47 48 48 48
22 22 21 21 21 22 23 24 25 24 23 23 24 25 24 24 25 26 26 26 28 30 31 32 33 33 34 34 34 34 34 33 33 33 34 34 34 34 34 35 35 34 33 34 35 35 36 36 37 37 36 37 37 38 39 41 42 44 45 46 46 45 45 44 44 43 41 41 41 40 39 38 38 38 38 38 39 41 43 45 46 46 46 47 47
22 22 22 22 22 23 25 26 26 25 25 25 25 25 25 26 26 27 27 28 29 30 31 32 33 34 34 35 35 35 34 33 33 34 34 35 35 35 35 36 36 36 35 36 37 37 38 38 38 39 39 39 40 41 42 43 44 45 47 47 47 46 45 44 44 42 40 40 40 40 39 38 37 37 37 37 38 39 41 44 45 45 45 46 46
22 22 22 22 23 24 26 27 27 27 27 26 26 26 27 28 28 28 28 29 30 31 32 33 33 34 35 36 36 36 35 34 34 34 35 35 36 37 37 38 38 38 38 38 39 39 40 40 40 40 41 42 42 43 44 45 46 47 48 48 47 46 45 44 44 43 42 42 41 39 38 37 36 36 36 37 37 38 40 42 44 44 44 44 45
22 22 23 23 25 26 27 27 28 28 28 28 28 28 28 29 29 28 29 30 32 33 35 36 36 36 37 37 37 37 36 35 35 35 35 36 37 39 39 39 39 39 40 40 41 41 41 42 42 42 43 44 45 46 46 47 47 48 49 48 47 47 46 45 45 44 43 42 40 38 36 35 35 35 35 35 36 37 39 41 43 43 42 42 43
Wind_Direction
318 312 312 315 318 322 322 317 313 311 311 309 306 305 304 304 306 306 309 318 319 309 290 284 294 302 306 303 303 316 320 317 316 313 311 309 307 306 305 305 304 305 307 309 312 313 314 315 314 314 313 313 313 314 313 313 312 311 310 309 308 306 304 303 303 302 302 301 300 299 298 298 297 296 295 294 292 291 290 288 287 285 283 282 281
315 311 313 316 317 320 321 316 308 305 308 308 306 306 303 303 307 305 307 319 323 309 280 284 300 305 306 296 290 313 319 314 314 313 310 309 307 307 306 306 305 307 310 312 313 313 313 313 313 313 313 313 314 313 313 312 311 311 310 309 308 306 306 305 304 303 302 302 301 301 300 300 299 299 298 297 295 294 292 290 288 287 285 283 282
312 311 312 313 314 318 320 316 309 304 305 304 305 307 305 304 304 300 301 313 317 295 273 294 309 307 306 297 286 308 316 313 314 314 310 308 307 308 307 306 307 309 311 312 312 311 312 312 313 313 313 314 314 313 312 312 312 311 311 310 309 308 307 306 305 305 304 304 304 304 304 303 303 302 301 300 298 297 295 293 291 289 287 285 283
312 311 310 310 312 314 314 313 309 305 304 301 303 306 305 307 306 302 303 308 309 288 273 293 306 303 303 301 288 303 313 314 315 314 309 307 308 308 307 307 307 307 308 309 309 310 310 312 313 313 313 313 313 313 313 314 313 312 312 311 310 309 308 308 307 307 307 307 307 306 306 306 305 304 303 302 301 300 298 296 294 292 290 288 285
310 309 308 309 308 309 309 310 310 307 306 303 304 305 306 309 310 309 307 302 298 288 281 285 290 300 305 298 285 297 310 313 313 311 306 306 306 306 306 306 306 307 309 310 310 310 310 311 311 312 312 313 314 314 315 314 314 313 312 311 310 309 309 309 309 309 308 308 307 307 306 306 306 305 304 303 302 301 300 299 297 295 293 291 288
306 306 306 306 303 304 307 310 312 311 311 309 306 306 306 307 308 309 306 300 293 289 288 272 271 300 310 298 289 297 306 310 309 306 303 302 301 302 302 304 307 311 312 312 313 312 312 311 311 311 312 314 315 315 315 314 313 312 311 310 310 309 310 310 309 309 308 308 308 308 307 307 307 306 305 304 303 301 300 298 297 295 293 291 289
306 305 303 302 302 303 306 308 310 309 309 307 305 304 304 303 305 305 304 302 296 294 289 263 272 301 308 300 298 300 304 306 304 301 299 298 296 298 301 305 310 312 312 312 313 313 313 312 312 312 312 314 314 314 314 313 312 311 310 310 310 310 310 309 309 309 309 310 310 310 310 310 309 308 307 305 304 302 300 298 296 294 293 290 288
307 304 301 301 302 303 304 304 303 301 298 299 302 304 304 304 304 300 302 305 301 295 282 268 287 303 304 302 301 300 301 301 299 297 295 292 291 294 298 302 305 306 307 308 310 311 312 312 313 313 313 313 313 313 312 311 310 310 310 310 310 311 311 311 311 311 312 313 313 313 312 311 310 309 307 306 304 302 300 298 296 294 291 289 287
304 301 300 302 303 303 305 305 303 298 291 291 295 298 301 305 304 298 300 306 302 284 268 282 298 302 302 304 301 298 297 294 291 289 285 282 281 285 290 294 296 298 300 305 308 310 311 312 313 313 314 314 313 312 311 310 310 310 311 311 312 313 313 313 313 314 314 314 314 313 313 312 310 308 307 305 303 301 299 297 294 292 290 287 285
299 297 300 303 304 305 307 309 308 303 294 290 290 291 295 299 301 299 299 305 298 268 271 294 302 301 304 305 300 298 295 291 287 284 280 279 282 287 291 294 296 300 304 308 310 310 311 311 312 313 313 313 312 311 311 311 312 312 314 315 315 315 315 315 315 316 316 316 316 315 315 313 311 309 307 305 303 301 298 296 293 291 288 285 282
298 298 302 304 304 307 309 311 310 307 298 292 289 289 293 297 298 296 296 300 288 270 283 297 301 302 304 304 302 298 295 292 286 283 284 288 294 299 302 304 306 310 312 313 313 312 311 310 311 311 311 310 311 312 312 313 315 316 317 317 317 317 318 319 320 320 320 319 318 317 316 314 312 311 309 307 305 302 300 297 294 291 287 284 281
299 300 302 304 305 307 310 311 308 304 300 294 290 289 293 297 297 295 293 291 284 280 289 294 297 302 304 303 299 293 291 288 282 284 290 296 301 305 308 310 312 315 315 314 313 311 310 309 310 310 311 312 313 314 315 316 318 318 318 318 319 321 323 324 324 324 322 321 320 318 317 315 314 312 310 308 306 304 301 299 296 294 291 288 284
300 303 304 304 306 308 309 308 304 302 301 297 294 292 294 296 295 295 293 289 286 284 286 289 295 301 302 298 289 284 283 281 281 287 292 296 300 304 309 312 314 316 315 314 311 310 309 310 311 312 313 314 315 316 317 318 318 318 320 322 324 326 328 328 327 325 324 323 321 320 319 317 316 314 313 311 309 306 303 301 300 299 297 293 288
305 307 307 306 308 309 307 306 304 302 301 300 298 295 294 294 295 296 293 291 289 285 283 289 296 299 297 289 280 277 277 277 283 289 292 296 300 306 311 314 315 314 313 312 310 310 311 312 313 315 316 316 317 318 318 318 319 321 324 326 328 329 330 329 328 327 325 324 323 323 322 321 319 318 316 314 311 309 307 306 304 303 300 296 291
308 307 306 307 309 309 308 307 305 302 301 300 298 294 293 295 298 297 294 292 288 283 284 291 292 291 284 275 270 270 273 279 286 291 295 300 305 310 314 315 314 312 311 310 309 311 312 314 316 317 318 319 319 318 317 319 323 325 328 329 331 331 331 329 329 328 327 327 327 326 325 324 323 320 318 316 314 313 313 311 309 307 304 301 299
305 305 305 305 307 308 309 308 305 302 302 301 297 293 292 294 296 295 293 288 280 276 282 288 287 279 267 261 263 267 274 282 288 292 297 302 308 312 313 314 312 310 310 310 311 313 315 318 319 320 320 319 317 317 320 323 326 328 330 331 332 331 330 329 330 331 331 331 330 329 328 327 325 322 321 320 319 319 319 316 314 312 310 308 309
304 306 306 305 306 307 307 306 304 303 302 301 296 291 290 291 291 290 290 284 276 275 281 284 278 262 255 255 260 268 276 282 288 293 298 303 308 311 313 312 310 310 311 312 314 317 319 321 321 320 318 317 317 320 324 326 328 329 330 331 331 329 329 331 333 334 334 334 333 332 331 329 326 324 324 324 324 325 324 321 318 314 312 311 312
303 307 307 305 304 305 304 302 302 302 301 299 295 290 288 289 287 286 288 284 279 280 280 274 259 240 243 251 258 267 275 282 289 294 299 304 309 312 311 310 309 311 313 316 318 321 322 322 320 318 316 317 320 323 326 327 327 328 330 331 330 329 330 333 335 336 336 336 336 334 332 330 327 326 327 328 329 328 327 325 320 314 311 310 311
302 305 305 302 302 301 300 299 300 301 301 298 295 291 287 286 286 284 283 279 277 279 270 253 239 230 238 249 259 269 276 284 291 297 303 307 310 312 311 310 312 314 317 320 323 323 322 320 318 317 318 320 322 324 325 326 326 328 329 330 329 329 331 333 336 338 338 338 337 335 333 331 329 329 331 331 332 332 331 329 323 316 311 309 310
300 302 301 300 300 299 297 297 299 300 299 297 294 291 288 285 283 277 274 272 273 275 257 234 228 231 241 250 260 270 278 286 294 300 305 308 311 312 312 313 314 317 322 324 325 324 322 320 319 319 321 322 324 324 324 324 325 327 329 330 329 330 331 333 336 339 340 339 338 336 334 333 331 332 334 334 334 335 335 334 329 321 315 312 312
297 296 297 299 298 296 295 296 297 298 297 295 292 288 282 275 268 265 267 268 270 267 240 221 223 232 242 250 258 266 276 286 295 301 305 309 312 313 314 316 318 322 325 325 324 323 322 321 322 322 323 323 323 322 321 321 323 326 329 329 329 330 331 333 336 339 340 340 339 337 335 334 334 334 335 336 336 337 339 340 337 330 322 316 314
291 292 295 297 296 294 295 296 298 297 294 292 288 280 267 261 264 265 264 266 264 246 224 219 224 232 241 248 254 263 276 287 295 301 305 309 312 313 316 320 322 324 325 324 323 323 323 324 324 323 322 321 319 318 318 320 323 326 328 328 328 330 331 333 336 339 340 340 340 338 337 336 335 336 337 338 338 339 341 343 343 338 331 323 317
288 290 293 294 293 294 296 297 300 299 295 289 283 274 265 262 263 262 263 264 251 228 221 225 231 237 243 248 256 269 282 291 298 302 304 307 309 312 316 321 322 323 324 324 323 325 325 324 322 320 318 316 314 314 317 320 323 326 327 328 329 330 331 332 335 338 339 340 341 339 338 337 336 336 338 339 340 341 342 344 344 342 337 331 323
286 288 290 291 292 294 297 298 300 300 297 288 276 267 262 259 256 257 260 254 234 223 226 232 238 244 248 254 265 280 290 297 302 304 305 305 306 310 315 319 320 321 323 324 324 326 325 321 319 316 314 313 312 315 319 322 324 326 327 328 329 329 330 332 335 337 339 341 341 340 339 338 337 337 338 339 341 342 343 343 343 343 342 338 332
285 286 288 290 292 294 297 298 299 300 298 287 269 256 252 250 247 245 240 233 225 226 231 236 244 249 253 263 276 288 297 303 305 305 305 305 308 311 314 316 318 319 322 324 325 325 323 319 316 313 311 311 313 317 322 324 325 326 326 327 328 329 329 331 334 336 339 341 342 341 340 339 337 337 337 339 340 342 343 342 341 342 343 343 339
285 287 289 291 293 295 298 299 297 296 293 280 261 251 250 245 238 228 221 221 223 228 234 242 249 254 261 274 285 295 303 306 306 305 305 308 312 314 314 315 317 319 321 323 324 323 321 317 313 310 310 312 315 320 323 324 325 325 326 327 328 328 329 331 334 336 339 341 343 342 341 339 338 336 336 338 339 342 342 342 342 342 343 344 342
284 287 289 293 296 295 297 295 290 288 285 274 261 254 250 240 227 219 217 221 226 232 240 248 253 260 271 282 292 301 306 306 305 305 308 311 314 315 316 317 318 319 320 321 322 321 318 315 311 310 311 312 315 319 321 322 323 324 325 327 327 327 328 331 333 336 338 341 343 343 342 340 338 336 336 336 338 340 340 341 342 342 342 343 342
282 285 289 294 295 297 299 291 280 278 277 268 261 254 243 230 221 219 221 226 231 239 248 253 259 268 278 287 296 302 303 304 305 306 309 310 312 314 316 317 318 319 320 320 320 319 316 313 311 311 311 312 315 317 318 320 322 324 325 326 327 328 329 331 333 335 337 340 343 344 342 340 338 336 335 335 335 337 338 339 341 342 342 342 340
279 284 289 293 291 297 302 289 269 269 263 252 251 244 230 224 222 224 227 232 240 248 254 259 266 274 282 290 295 298 301 303 305 307 308 309 310 312 313 315 316 317 318 319 318 317 315 314 312 312 312 314 315 315 317 320 322 323 325 326 327 328 329 330 332 334 336 339 342 344 343 341 339 337 335 334 334 334 335 336 338 340 342 342 341
281 286 290 291 288 293 299 282 254 252 240 236 240 231 224 226 226 228 234 242 251 256 260 265 272 279 285 289 293 296 299 302 304 306 308 309 310 311 312 312 313 315 316 317 317 316 315 315 314 313 314 315 315 315 317 319 321 323 325 326 328 328 329 330 331 333 335 337 341 343 343 342 340 338 335 334 334 333 333 334 335 337 339 341 341
283 288 289 289 288 290 290 275 256 249 239 236 233 224 224 227 228 236 244 253 259 262 266 270 276 280 285 289 292 295 297 300 303 306 308 310 310 311 311 311 313 315 315 315 315 316 316 315 314 314 315 314 314 315 317 318 320 322 325 327 328 329 329 329 330 332 334 336 339 341 342 342 340 338 337 336 334 333 332 332 332 333 335 338 340
282 284 282 278 279 283 283 278 268 255 241 231 222 218 223 228 236 247 254 260 264 267 270 274 278 282 285 288 291 293 296 300 304 306 308 309 310 310 310 310 312 314 314 314 315 316 317 316 314 314 314 313 314 315 316 318 320 322 325 327 328 329 328 328 330 331 333 335 337 339 341 341 340 339 338 336 334 332 331 330 330 330 332 334 336
278 277 272 267 271 277 278 273 263 245 226 215 211 215 226 238 247 254 259 264 267 271 274 277 280 283 285 288 290 294 299 303 306 307 307 307 308 308 307 308 310 312 313 313 316 317 316 315 314 314 313 312 313 315 316 318 321 323 325 327 328 328 328 328 329 331 333 334 335 337 341 341 340 340 338 335 333 332 331 330 329 329 330 331 333
273 270 266 266 272 276 272 262 247 225 211 207 212 223 235 245 251 257 262 266 271 275 278 280 282 284 287 290 294 298 301 304 306 306 305 305 306 307 307 307 308 310 312 314 316 317 316 315 314 312 311 311 313 314 316 318 321 323 325 326 327 328 327 327 329 331 332 332 332 336 340 341 341 340 338 335 333 332 332 331 330 329 330 330 331
270 267 266 268 274 272 260 244 225 213 211 214 224 233 242 249 255 259 265 270 276 279 282 284 287 289 292 296 299 301 303 304 304 304 303 303 305 306 307 306 307 309 311 314 316 316 315 314 312 310 310 311 313 315 316 318 320 322 323 325 326 327 327 328 330 331 331 330 330 334 339 340 340 339 337 336 335 334 333 332 331 331 331 331 331
266 265 264 266 267 259 244 226 214 215 220 226 233 241 248 254 258 263 269 275 280 284 287 290 293 295 297 300 302 303 303 301 301 302 302 302 302 303 304 304 305 308 311 314 316 316 315 313 312 310 310 311 313 315 316 316 318 320 322 324 325 326 327 329 330 330 329 328 329 334 338 339 339 338 337 337 337 337 335 334 333 333 332 332 332
262 260 258 258 256 247 233 217 214 221 228 234 240 247 253 258 262 268 274 280 284 288 291 294 297 298 300 302 304 304 304 302 299 299 301 300 299 300 302 302 304 307 311 314 316 315 314 312 311 310 309 310 312 314 315 316 318 320 322 323 324 326 328 329 329 328 327 327 330 334 337 338 338 338 339 339 340 339 338 337 336 335 334 334 333
256 255 253 251 248 242 231 219 219 228 235 241 245 251 258 263 267 273 279 284 287 290 294 296 299 301 303 304 304 304 305 304 299 294 295 296 298 301 303 303 304 307 311 314 314 313 313 312 312 310 310 311 313 314 315 316 317 319 320 323 325 326 327 327 326 327 326 328 331 333 335 336 337 338 339 341 342 342 341 340 338 337 336 335 335
250 251 248 245 245 243 236 226 226 233 239 245 249 256 263 269 274 279 283 286 290 292 295 298 299 302 303 303 303 302 304 305 300 294 292 296 301 304 304 303 305 308 311 313 313 312 312 313 312 311 311 312 314 315 315 315 316 317 320 323 325 325 325 324 324 325 326 328 331 332 333 335 337 338 340 341 342 343 342 341 340 339 337 337 338
246 247 243 241 243 244 241 234 234 240 245 250 256 262 269 275 279 283 286 288 292 294 296 297 298 300 301 301 302 303 303 302 301 298 297 300 303 304 303 304 305 308 311 312 311 312 313 313 312 312 312 314 316 317 316 316 316 317 319 322 324 323 323 323 324 325 327 329 330 330 331 333 335 337 339 341 342 343 343 342 342 341 339 340 341
244 246 242 241 245 247 246 242 242 247 252 257 263 268 274 279 282 285 287 289 291 293 294 295 296 298 299 300 301 301 301 300 300 300 300 302 302 302 302 303 305 308 310 310 311 312 313 313 313 313 314 315 317 318 317 317 316 317 319 322 324 323 323 323 324 325 327 328 327 327 329 331 333 335 338 340 342 343 343 343 342 342 342 342 343
244 246 245 245 247 250 251 250 252 255 259 264 269 273 277 281 283 285 287 288 290 291 292 293 295 297 298 298 299 299 298 298 299 299 300 301 301 301 301 302 305 307 309 309 310 312 313 313 314 314 315 316 317 318 317 317 316 317 320 323 324 322 321 323 324 325 325 325 324 325 327 329 332 335 337 339 341 342 342 343 343 343 344 343 344
245 246 246 247 249 252 254 257 259 261 265 269 273 276 278 281 283 284 285 287 288 290 291 292 294 296 296 297 298 297 296 295 296 297 299 300 301 300 300 301 304 306 307 308 310 311 312 314 314 315 315 316 316 317 317 318 319 320 322 324 323 320 320 322 323 323 322 322 323 324 326 329 331 334 336 338 341 342 342 343 343 344 345 344 345
246 246 247 248 250 253 257 259 262 264 268 271 274 276 278 280 282 282 284 286 287 288 289 291 293 294 295 295 296 296 296 294 293 294 297 299 300 299 300 300 302 304 305 307 309 310 312 313 314 315 316 316 316 317 319 321 322 322 323 323 322 320 320 321 322 321 320 320 322 324 326 329 331 333 335 338 340 342 343 344 344 345 345 345 346
247 247 248 249 250 254 257 260 263 265 268 271 273 275 277 279 280 281 282 284 286 286 287 289 292 293 293 294 295 295 295 293 292 292 295 298 298 298 298 299 300 302 304 306 308 309 311 312 312 314 315 315 317 319 321 322 322 321 321 320 320 320 319 320 320 319 319 320 322 324 326 327 329 332 335 338 340 343 344 345 345 345 346 345 346
247 248 249 250 252 255 258 261 264 266 268 271 273 274 276 277 278 279 281 283 285 285 287 289 291 292 293 294 294 294 294 293 291 291 293 296 298 297 297 297 298 300 302 304 306 307 309 309 309 311 313 314 316 319 321 322 321 320 319 318 318 318 318 319 319 319 320 322 323 324 325 326 328 331 335 338 340 343 345 346 345 346 346 346 347
247 248 250 251 253 256 259 262 264 266 269 271 273 274 275 277 278 279 281 283 284 285 287 289 291 292 292 293 293 293 293 293 292 290 291 295 297 297 297 296 297 298 300 302 304 305 306 306 306 308 310 311 313 315 317 318 318 318 318 317 316 317 317 318 319 320 321 322 322 322 324 325 327 330 334 337 340 343 345 346 346 346 348 348 348
249 250 251 253 255 258 261 263 265 268 269 271 272 274 276 277 278 279 281 284 285 286 287 289 291 292 292 291 291 291 292 293 292 290 290 293 296 296 296 295 296 297 298 299 301 302 303 303 304 306 307 308 309 310 312 313 315 316 316 316 315 316 316 317 319 319 320 320 321 321 323 325 327 330 333 336 339 343 345 346 346 347 349 349 349
250 251 252 255 257 260 262 264 266 269 270 271 272 275 277 277 277 279 282 284 284 286 288 291 293 293 292 291 290 290 291 292 291 290 289 291 294 295 294 294 295 297 297 298 299 300 301 302 303 304 304 304 305 306 308 310 312 313 314 314 314 314 314 315 316 316 317 318 320 322 323 324 325 329 333 336 339 342 344 346 346 347 349 350 350
250 252 254 257 259 261 263 266 268 269 270 271 273 275 276 276 277 279 282 284 288 290 292 295 296 295 292 290 289 289 289 291 291 289 289 290 292 293 294 294 295 296 297 297 297 298 299 300 301 302 302 302 303 304 306 307 309 310 311 311 311 312 312 312 313 315 317 319 321 322 323 323 324 327 331 336 340 342 343 345 346 347 348 350 351
251 253 256 258 260 262 264 266 268 269 270 272 273 275 275 275 276 279 281 285 290 294 295 297 298 296 293 290 288 287 288 289 290 289 288 288 290 292 294 295 296 296 296 296 295 296 297 298 298 299 300 301 301 302 304 305 306 307 308 308 308 309 310 312 314 316 318 319 320 321 322 323 324 325 327 332 338 342 344 345 346 347 348 349 351
Height
5859 5858 5858 5857 5857 5857 5856 5855 5855 5855 5854 5853 5853 5853 5852 5852 5851 5850 5850 5850 5849 5848 5849 5849 5849 5848 5846 5845 5844 5843 5842 5842 5842 5841 5841 5840 5839 5838 5838 5837 5837 5836 5835 5834 5833 5832 5831 5829 5828 5826 5825 5823 5822 5820 5819 5818 5816 5815 5813 5812 5811 5809 5808 5806 5804 5802 5801 5799 5797 5795 5793 5791 5789 5787 5785 5784 5782 5780 5778 5776 5775 5773 5772 5770 5768
5857 5856 5856 5856 5856 5855 5854 5853 5853 5853 5853 5852 5851 5851 5851 5850 5850 5849 5849 5849 5848 5847 5847 5848 5848 5847 5845 5844 5844 5842 5840 5840 5841 5840 5839 5838 5837 5837 5836 5836 5835 5834 5833 5832 5831 5830 5828 5827 5825 5824 5823 5821 5820 5819 5817 5816 5814 5813 5811 5810 5808 5807 5805 5803 5801 5799 5797 5795 5793 5791 5789 5787 5785 5782 5780 5778 5777 5775 5774 5772 5770 5768 5767 5765 5763
5855 5855 5855 5854 5854 5853 5852 5852 5851 5851 5851 5851 5850 5849 5849 5849 5849 5848 5848 5848 5847 5846 5846 5846 5846 5846 5845 5843 5843 5841 5839 5839 5839 5838 5837 5836 5836 5835 5835 5834 5833 5832 5831 5830 5829 5827 5826 5824 5823 5821 5820 5819 5818 5816 5815 5813 5812 5810 5809 5807 5805 5803 5802 5800 5798 5796 5793 5791 5789 5787 5785 5783 5781 5778 5776 5774 5772 5770 5769 5767 5765 5763 5761 5760 5758
5853 5853 5853 5853 5852 5851 5851 5850 5850 5850 5849 5849 5848 5848 5847 5847 5847 5847 5847 5846 5845 5845 5844 5844 5844 5845 5843 5842 5841 5839 5837 5838 5837 5836 5836 5834 5834 5833 5833 5832 5831 5830 5830 5829 5827 5825 5824 5822 5821 5819 5818 5817 5816 5814 5812 5811 5809 5807 5806 5804 5802 5800 5798 5796 5794 5792 5790 5788 5785 5783 5781 5779 5776 5774 5772 5769 5767 5765 5763 5761 5760 5758 5757 5755 5753
5852 5851 5851 5851 5850 5850 5849 5849 5848 5848 5848 5847 5847 5846 5845 5845 5845 5845 5845 5844 5843 5843 5843 5843 5843 5843 5841 5840 5840 5838 5836 5836 5836 5835 5834 5833 5832 5832 5831 5830 5829 5828 5827 5826 5825 5823 5822 5820 5819 5817 5816 5815 5813 5811 5809 5808 5806 5805 5803 5801 5799 5797 5795 5793 5790 5788 5786 5784 5782 5779 5777 5775 5773 5770 5768 5766 5764 5761 5759 5757 5755 5753 5751 5750 5748
5851 5851 5850 5850 5849 5848 5848 5847 5847 5846 5846 5845 5845 5844 5844 5844 5844 5844 5843 5842 5841 5841 5841 5842 5841 5840 5839 5838 5838 5837 5836 5835 5834 5834 5833 5832 5832 5831 5830 5828 5826 5825 5824 5823 5822 5821 5820 5818 5817 5815 5814 5812 5810 5809 5807 5805 5804 5802 5800 5798 5796 5794 5792 5789 5787 5785 5782 5780 5778 5776 5774 5771 5769 5767 5765 5762 5760 5757 5755 5753 5750 5748 5746 5744 5742
5850 5849 5849 5848 5848 5847 5846 5846 5846 5845 5844 5844 5843 5843 5843 5843 5843 5842 5841 5840 5839 5839 5840 5840 5839 5838 5837 5836 5836 5835 5835 5834 5833 5832 5832 5832 5831 5830 5828 5826 5824 5823 5822 5821 5819 5818 5817 5816 5815 5813 5811 5810 5808 5806 5805 5803 5801 5799 5797 5795 5793 5791 5789 5786 5784 5781 5779 5777 5775 5773 5770 5768 5765 5763 5760 5758 5755 5753 5750 5748 5745 5743 5741 5738 5737
5848 5847 5847 5846 5846 5845 5845 5844 5844 5844 5843 5843 5842 5842 5842 5842 5841 5840 5839 5837 5837 5837 5838 5838 5838 5836 5835 5835 5834 5834 5833 5833 5832 5831 5831 5830 5829 5828 5827 5825 5824 5822 5821 5820 5818 5817 5815 5814 5813 5811 5809 5807 5806 5804 5802 5800 5799 5797 5795 5792 5790 5788 5785 5783 5781 5778 5776 5774 5771 5769 5766 5764 5761 5758 5755 5752 5749 5746 5744 5741 5739 5736 5734 5732 5730
5846 5845 5845 5844 5844 5843 5843 5842 5842 5842 5841 5841 5841 5841 5840 5840 5840 5838 5837 5836 5835 5835 5836 5836 5836 5835 5834 5833 5833 5832 5832 5831 5831 5830 5830 5829 5828 5828 5826 5824 5823 5822 5820 5819 5817 5815 5814 5812 5810 5808 5807 5805 5803 5802 5800 5798 5796 5794 5792 5790 5787 5785 5782 5780 5778 5775 5773 5770 5768 5765 5762 5759 5755 5752 5749 5746 5743 5740 5737 5734 5732 5729 5727 5724 5722
5843 5843 5842 5842 5841 5841 5840 5839 5839 5839 5839 5839 5838 5838 5838 5838 5837 5836 5836 5835 5834 5834 5834 5834 5834 5833 5832 5831 5831 5830 5830 5830 5829 5829 5828 5827 5826 5825 5824 5823 5822 5820 5818 5817 5815 5814 5812 5811 5809 5807 5805 5803 5801 5799 5797 5795 5793 5791 5789 5786 5784 5782 5779 5777 5775 5772 5769 5766 5763 5760 5756 5753 5749 5746 5742 5739 5736 5732 5729 5726 5723 5721 5718 5716 5714
5841 5841 5840 5840 5839 5838 5838 5837 5837 5837 5837 5837 5836 5836 5836 5836 5835 5835 5834 5834 5833 5833 5833 5832 5831 5831 5830 5829 5829 5828 5828 5827 5827 5826 5825 5824 5823 5822 5821 5820 5819 5817 5815 5814 5813 5812 5811 5809 5807 5805 5803 5801 5799 5797 5795 5792 5790 5788 5786 5783 5781 5779 5777 5774 5772 5769 5766 5763 5759 5755 5751 5747 5743 5739 5735 5731 5727 5724 5720 5717 5714 5712 5709 5707 5705
5839 5839 5838 5838 5837 5837 5836 5836 5836 5835 5835 5835 5834 5834 5833 5833 5833 5833 5833 5832 5831 5831 5831 5830 5829 5829 5828 5827 5827 5826 5826 5825 5825 5824 5823 5822 5821 5819 5818 5817 5815 5814 5813 5812 5811 5810 5808 5807 5805 5803 5800 5798 5796 5794 5792 5790 5787 5785 5783 5781 5778 5776 5773 5771 5768 5765 5762 5758 5755 5751 5746 5742 5737 5733 5728 5724 5720 5716 5712 5708 5705 5702 5700 5698 5696
5837 5837 5836 5836 5835 5835 5835 5834 5834 5833 5833 5833 5832 5832 5831 5831 5830 5830 5831 5830 5829 5828 5828 5828 5827 5826 5826 5826 5825 5825 5824 5824 5823 5822 5821 5820 5819 5818 5816 5815 5813 5812 5811 5810 5809 5808 5806 5804 5802 5800 5797 5795 5793 5791 5789 5787 5785 5783 5780 5778 5775 5773 5770 5768 5765 5761 5758 5754 5750 5746 5741 5736 5732 5727 5722 5718 5713 5709 5704 5700 5696 5694 5692 5689 5687
5835 5835 5834 5834 5833 5833 5833 5832 5832 5831 5831 5830 5830 5830 5830 5829 5828 5828 5828 5827 5826 5826 5826 5826 5825 5824 5824 5824 5824 5823 5823 5822 5821 5821 5820 5818 5817 5816 5815 5813 5812 5810 5809 5808 5807 5805 5803 5801 5799 5797 5795 5793 5790 5788 5786 5785 5783 5780 5778 5776 5773 5770 5768 5765 5761 5758 5754 5750 5745 5741 5736 5730 5725 5720 5716 5711 5707 5702 5698 5694 5690 5686 5683 5681 5678
5833 5833 5832 5832 5831 5831 5830 5830 5829 5829 5828 5828 5828 5828 5827 5827 5826 5826 5826 5825 5824 5824 5824 5823 5823 5822 5822 5822 5822 5822 5821 5820 5819 5819 5818 5817 5815 5814 5813 5811 5810 5809 5808 5806 5805 5803 5800 5798 5796 5794 5792 5790 5788 5786 5784 5782 5780 5778 5775 5773 5770 5768 5765 5762 5758 5755 5750 5745 5741 5736 5730 5725 5720 5715 5710 5706 5701 5697 5692 5688 5684 5681 5677 5674 5671
5831 5831 5831 5830 5829 5829 5828 5828 5827 5826 5826 5826 5826 5826 5825 5824 5824 5824 5824 5823 5823 5822 5822 5821 5821 5821 5820 5821 5821 5820 5820 5819 5818 5817 5816 5815 5813 5812 5811 5810 5808 5807 5806 5804 5802 5800 5798 5795 5793 5791 5789 5787 5785 5783 5781 5779 5777 5775 5773 5770 5767 5765 5762 5759 5755 5751 5746 5741 5736 5731 5725 5720 5714 5710 5705 5701 5696 5692 5687 5683 5678 5675 5672 5669 5666
5829 5829 5829 5828 5828 5827 5826 5826 5825 5824 5824 5825 5824 5823 5823 5822 5822 5821 5821 5821 5821 5821 5820 5819 5819 5819 5819 5819 5819 5819 5818 5817 5817 5816 5814 5813 5812 5811 5809 5808 5807 5805 5804 5802 5800 5798 5795 5793 5791 5789 5787 5785 5783 5780 5778 5776 5774 5772 5770 5768 5765 5762 5759 5756 5751 5747 5742 5737 5732 5726 5720 5715 5710 5706 5701 5697 5691 5687 5683 5678 5673 5669 5667 5664 5662
5827 5827 5827 5826 5826 5825 5824 5824 5823 5823 5822 5822 5822 5821 5821 5820 5820 5819 5819 5819 5820 5819 5818 5817 5817 5818 5818 5818 5818 5817 5817 5816 5815 5814 5813 5812 5811 5809 5808 5806 5805 5803 5801 5800 5797 5795 5793 5790 5788 5786 5784 5782 5780 5777 5776 5774 5772 5770 5767 5765 5763 5760 5756 5752 5748 5743 5738 5733 5727 5722 5716 5712 5707 5702 5698 5693 5688 5683 5678 5674 5669 5665 5662 5660 5657
5825 5825 5824 5824 5823 5823 5822 5822 5821 5821 5820 5820 5820 5819 5819 5818 5818 5818 5818 5818 5818 5817 5816 5816 5816 5817 5817 5817 5816 5816 5815 5814 5813 5812 5811 5810 5809 5808 5806 5804 5803 5801 5799 5797 5795 5792 5790 5788 5786 5784 5781 5779 5777 5775 5773 5771 5769 5767 5765 5762 5760 5757 5753 5749 5745 5740 5735 5729 5724 5718 5713 5708 5704 5699 5694 5689 5685 5680 5674 5670 5665 5661 5658 5655 5653
5823 5823 5822 5821 5821 5821 5820 5819 5819 5818 5818 5817 5817 5817 5817 5816 5816 5816 5816 5816 5815 5815 5815 5815 5815 5815 5816 5815 5815 5814 5813 5813 5811 5810 5809 5808 5807 5806 5804 5803 5800 5798 5796 5794 5792 5790 5788 5785 5783 5781 5778 5776 5774 5772 5770 5769 5767 5764 5762 5759 5757 5754 5750 5746 5741 5736 5731 5726 5721 5715 5710 5705 5700 5695 5691 5686 5681 5677 5672 5666 5662 5658 5654 5651 5649
5820 5820 5820 5819 5819 5818 5818 5817 5816 5815 5815 5815 5814 5814 5814 5814 5814 5814 5814 5814 5813 5813 5813 5814 5814 5814 5814 5814 5814 5813 5812 5811 5810 5808 5807 5806 5804 5803 5802 5800 5798 5796 5794 5791 5789 5787 5785 5782 5780 5777 5775 5773 5771 5769 5768 5766 5764 5762 5759 5757 5754 5750 5746 5742 5738 5733 5729 5724 5718 5713 5707 5701 5697 5692 5687 5683 5678 5673 5668 5663 5658 5654 5650 5647 5644
5818 5818 5817 5817 5816 5815 5815 5814 5813 5813 5812 5812 5811 5811 5811 5811 5811 5811 5811 5811 5811 5811 5812 5812 5813 5813 5813 5813 5812 5812 5811 5810 5809 5807 5805 5804 5802 5801 5800 5798 5795 5793 5791 5789 5787 5784 5782 5779 5777 5775 5772 5770 5769 5767 5766 5764 5761 5759 5756 5753 5750 5747 5743 5739 5735 5730 5726 5721 5716 5710 5704 5698 5693 5689 5684 5680 5675 5670 5665 5660 5655 5651 5647 5643 5640
5816 5815 5815 5814 5813 5812 5812 5812 5811 5810 5809 5808 5808 5808 5808 5809 5809 5809 5809 5809 5809 5810 5810 5811 5811 5812 5812 5811 5811 5810 5809 5808 5807 5805 5804 5802 5801 5799 5797 5795 5793 5791 5789 5786 5784 5781 5779 5776 5774 5773 5770 5769 5767 5765 5763 5761 5758 5755 5753 5750 5747 5743 5739 5736 5732 5727 5723 5718 5713 5707 5701 5696 5691 5686 5681 5677 5672 5667 5662 5658 5654 5649 5644 5640 5637
5813 5813 5812 5811 5810 5810 5809 5809 5808 5807 5806 5805 5805 5805 5806 5806 5807 5807 5806 5807 5807 5808 5808 5809 5809 5810 5810 5809 5809 5808 5807 5806 5805 5803 5802 5800 5799 5797 5795 5793 5790 5788 5786 5784 5781 5779 5777 5774 5772 5770 5768 5766 5764 5762 5760 5757 5755 5752 5749 5747 5743 5740 5736 5732 5728 5724 5720 5715 5710 5704 5698 5693 5688 5683 5679 5674 5670 5665 5660 5656 5652 5647 5642 5637 5634
5810 5810 5809 5808 5808 5807 5806 5806 5805 5804 5803 5803 5803 5804 5804 5804 5805 5804 5804 5805 5805 5806 5807 5807 5807 5808 5808 5807 5807 5806 5805 5804 5802 5801 5800 5798 5796 5794 5792 5790 5788 5786 5784 5781 5779 5776 5774 5772 5770 5768 5766 5764 5761 5759 5756 5754 5751 5749 5746 5743 5740 5736 5733 5729 5725 5721 5716 5712 5707 5701 5696 5690 5685 5681 5676 5672 5668 5663 5658 5654 5649 5645 5640 5636 5631
5807 5806 5806 5806 5805 5804 5804 5803 5802 5802 5801 5801 5802 5802 5802 5802 5802 5802 5803 5804 5804 5805 5805 5806 5806 5806 5805 5805 5805 5804 5803 5801 5800 5799 5797 5795 5793 5791 5789 5787 5785 5783 5781 5779 5777 5774 5772 5770 5768 5765 5763 5761 5758 5755 5753 5750 5748 5745 5743 5740 5737 5733 5729 5726 5722 5717 5713 5708 5703 5698 5693 5688 5683 5678 5674 5670 5665 5661 5656 5652 5647 5642 5638 5634 5629
5804 5803 5803 5803 5802 5801 5800 5800 5799 5799 5799 5800 5800 5800 5800 5800 5800 5801 5802 5803 5803 5804 5804 5804 5804 5804 5803 5803 5802 5801 5800 5799 5798 5796 5794 5792 5790 5788 5786 5784 5782 5780 5778 5776 5774 5772 5770 5767 5765 5762 5760 5758 5755 5752 5749 5747 5745 5742 5740 5737 5733 5730 5726 5722 5719 5714 5710 5705 5700 5695 5690 5685 5680 5676 5672 5667 5663 5659 5654 5650 5645 5640 5636 5631 5627
5802 5801 5801 5801 5800 5799 5798 5797 5797 5797 5797 5798 5799 5799 5799 5799 5799 5800 5801 5802 5802 5802 5802 5802 5802 5802 5801 5801 5800 5799 5798 5797 5795 5793 5791 5789 5788 5786 5784 5781 5779 5777 5775 5773 5771 5769 5767 5764 5762 5759 5757 5754 5752 5749 5747 5744 5741 5739 5736 5733 5730 5726 5723 5719 5715 5711 5707 5702 5697 5692 5687 5683 5678 5673 5669 5665 5661 5657 5653 5648 5643 5638 5633 5629 5625
5799 5799 5799 5798 5798 5797 5796 5794 5794 5795 5795 5796 5797 5797 5797 5798 5798 5799 5800 5800 5800 5800 5801 5801 5800 5800 5799 5799 5798 5797 5796 5794 5792 5790 5788 5787 5785 5783 5781 5779 5777 5775 5773 5771 5769 5766 5764 5761 5758 5756 5753 5751 5749 5747 5744 5741 5738 5736 5733 5730 5727 5723 5720 5716 5712 5708 5704 5699 5694 5689 5685 5680 5675 5671 5667 5663 5659 5655 5651 5646 5641 5636 5632 5627 5622
5797 5797 5796 5796 5795 5795 5794 5793 5793 5794 5794 5795 5795 5796 5796 5797 5797 5798 5798 5799 5799 5799 5799 5799 5798 5798 5797 5796 5796 5795 5793 5792 5790 5788 5786 5784 5782 5780 5778 5776 5775 5772 5770 5768 5766 5763 5760 5758 5755 5752 5750 5747 5745 5743 5741 5739 5736 5733 5730 5727 5724 5720 5717 5713 5709 5705 5701 5696 5691 5687 5682 5677 5673 5668 5664 5660 5656 5652 5648 5644 5639 5634 5630 5625 5620
5795 5795 5794 5794 5794 5794 5793 5793 5793 5793 5793 5793 5794 5794 5795 5796 5796 5797 5797 5798 5798 5797 5797 5797 5796 5796 5795 5794 5793 5792 5791 5789 5787 5785 5783 5781 5779 5777 5775 5773 5771 5770 5767 5765 5763 5760 5757 5754 5752 5749 5747 5744 5742 5740 5738 5736 5733 5730 5727 5724 5721 5717 5714 5710 5706 5702 5698 5693 5689 5684 5680 5675 5670 5666 5661 5657 5653 5649 5645 5641 5637 5632 5627 5623 5618
5793 5793 5793 5792 5792 5792 5793 5792 5792 5792 5792 5792 5793 5793 5794 5795 5796 5796 5796 5796 5796 5796 5795 5795 5794 5794 5793 5792 5791 5789 5788 5786 5785 5783 5781 5779 5777 5774 5772 5771 5769 5767 5765 5762 5760 5757 5754 5751 5749 5746 5744 5741 5740 5737 5735 5732 5730 5727 5724 5721 5718 5714 5711 5707 5703 5699 5695 5690 5687 5682 5677 5673 5668 5663 5659 5654 5651 5647 5643 5639 5634 5630 5625 5620 5615
5791 5791 5791 5791 5791 5791 5791 5791 5790 5790 5791 5791 5792 5792 5793 5794 5794 5795 5795 5794 5794 5794 5794 5793 5792 5791 5791 5789 5788 5786 5785 5784 5782 5780 5778 5776 5774 5772 5770 5768 5766 5764 5762 5759 5757 5754 5751 5749 5746 5744 5741 5739 5737 5735 5732 5729 5726 5723 5721 5718 5715 5711 5708 5704 5700 5696 5692 5688 5684 5680 5675 5670 5666 5661 5656 5652 5648 5644 5640 5636 5631 5627 5622 5617 5612
5789 5789 5789 5789 5789 5789 5789 5789 5789 5789 5789 5790 5790 5791 5792 5793 5793 5793 5793 5793 5792 5792 5792 5791 5790 5789 5788 5787 5785 5784 5782 5781 5780 5778 5776 5773 5771 5769 5767 5766 5763 5761 5759 5757 5754 5751 5748 5746 5744 5741 5739 5737 5735 5732 5729 5726 5723 5720 5718 5715 5712 5708 5704 5701 5697 5693 5690 5686 5682 5678 5673 5668 5663 5658 5654 5650 5645 5641 5637 5633 5628 5623 5619 5614 5609
5787 5787 5787 5787 5788 5788 5788 5788 5788 5788 5788 5789 5790 5790 5791 5791 5792 5792 5791 5791 5791 5790 5789 5789 5788 5786 5785 5784 5782 5781 5780 5778 5776 5775 5773 5770 5768 5767 5765 5763 5761 5759 5756 5754 5751 5748 5746 5744 5741 5739 5737 5734 5732 5729 5726 5724 5721 5718 5714 5711 5709 5706 5702 5698 5694 5690 5687 5683 5680 5675 5670 5665 5661 5656 5652 5648 5643 5638 5634 5629 5625 5620 5616 5611 5606
5785 5785 5786 5786 5786 5786 5786 5786 5786 5787 5787 5788 5789 5789 5789 5790 5790 5790 5789 5789 5788 5788 5787 5786 5785 5783 5782 5781 5779 5778 5777 5775 5773 5771 5770 5768 5766 5764 5762 5760 5758 5756 5753 5751 5748 5746 5743 5741 5738 5736 5734 5732 5729 5726 5723 5721 5719 5716 5712 5708 5705 5702 5699 5695 5691 5687 5684 5680 5677 5672 5667 5663 5658 5654 5650 5645 5641 5636 5631 5626 5622 5617 5613 5608 5603
5783 5784 5784 5784 5785 5785 5785 5784 5785 5785 5786 5787 5787 5788 5788 5788 5788 5787 5787 5786 5786 5785 5784 5783 5782 5780 5779 5778 5777 5775 5774 5772 5770 5768 5767 5764 5762 5761 5759 5757 5755 5753 5751 5748 5745 5743 5741 5738 5736 5733 5731 5729 5727 5724 5721 5718 5715 5712 5709 5706 5702 5698 5695 5691 5688 5685 5681 5677 5673 5669 5665 5660 5656 5652 5648 5643 5638 5633 5628 5623 5619 5614 5610 5605 5600
5782 5782 5782 5782 5783 5783 5783 5783 5783 5784 5785 5785 5786 5786 5785 5785 5785 5785 5784 5784 5783 5782 5781 5780 5779 5778 5777 5775 5774 5772 5770 5768 5766 5764 5763 5761 5759 5757 5756 5754 5752 5750 5748 5745 5743 5740 5738 5736 5733 5731 5729 5727 5724 5722 5719 5716 5713 5709 5706 5703 5699 5695 5692 5688 5685 5682 5679 5674 5670 5666 5663 5659 5654 5650 5646 5641 5636 5631 5626 5621 5616 5611 5607 5602 5597
5780 5780 5780 5781 5781 5782 5781 5781 5782 5782 5783 5784 5784 5783 5783 5783 5782 5782 5782 5781 5780 5779 5778 5777 5776 5775 5774 5772 5770 5769 5767 5764 5762 5760 5759 5758 5756 5754 5753 5751 5750 5747 5745 5743 5740 5738 5736 5733 5731 5729 5726 5724 5722 5719 5717 5714 5711 5708 5704 5700 5696 5693 5689 5686 5683 5679 5676 5672 5667 5664 5660 5656 5652 5647 5643 5638 5633 5629 5624 5618 5613 5609 5604 5599 5594
5778 5778 5778 5779 5780 5780 5779 5779 5780 5781 5781 5781 5781 5781 5780 5780 5780 5780 5779 5778 5778 5777 5776 5774 5773 5772 5771 5769 5767 5765 5764 5761 5759 5758 5756 5754 5753 5751 5750 5749 5747 5745 5742 5740 5738 5736 5733 5731 5729 5726 5724 5722 5719 5717 5714 5711 5708 5705 5702 5699 5695 5691 5687 5684 5681 5677 5673 5669 5665 5662 5658 5654 5650 5645 5640 5635 5631 5626 5622 5616 5611 5606 5601 5597 5592
5775 5776 5776 5777 5777 5777 5777 5778 5778 5778 5779 5779 5778 5778 5778 5778 5778 5777 5776 5776 5775 5774 5773 5772 5771 5770 5768 5766 5764 5762 5760 5758 5757 5755 5753 5751 5750 5749 5747 5746 5744 5742 5740 5737 5735 5733 5731 5728 5726 5724 5721 5719 5716 5714 5711 5708 5705 5702 5699 5696 5692 5688 5685 5682 5678 5674 5671 5667 5663 5660 5656 5652 5647 5642 5638 5633 5629 5624 5619 5614 5609 5604 5599 5594 5589
5773 5774 5774 5775 5775 5775 5775 5776 5776 5776 5776 5776 5776 5775 5775 5775 5775 5775 5774 5773 5772 5772 5770 5769 5768 5767 5765 5763 5761 5760 5758 5756 5754 5752 5750 5749 5747 5746 5744 5743 5741 5739 5737 5735 5733 5730 5728 5726 5724 5721 5719 5716 5714 5711 5708 5705 5702 5699 5696 5693 5690 5686 5683 5679 5675 5671 5668 5665 5661 5658 5654 5649 5644 5640 5635 5631 5627 5622 5617 5612 5607 5602 5596 5591 5586
5771 5771 5772 5773 5773 5773 5773 5773 5773 5773 5773 5773 5773 5773 5773 5773 5773 5772 5771 5771 5770 5769 5768 5766 5765 5764 5762 5760 5758 5756 5754 5753 5751 5749 5748 5746 5744 5743 5741 5740 5738 5736 5734 5732 5730 5728 5726 5724 5721 5719 5716 5714 5711 5708 5706 5703 5700 5696 5693 5691 5688 5684 5681 5677 5673 5669 5665 5662 5659 5656 5651 5646 5642 5637 5633 5628 5624 5620 5615 5610 5605 5600 5594 5589 5584
5769 5769 5770 5770 5771 5771 5771 5771 5771 5771 5771 5771 5771 5771 5771 5770 5770 5769 5769 5768 5767 5766 5765 5763 5762 5761 5759 5757 5755 5753 5751 5749 5748 5746 5745 5743 5741 5740 5738 5737 5735 5733 5731 5729 5727 5725 5723 5721 5719 5716 5714 5711 5709 5706 5703 5700 5697 5693 5690 5688 5685 5682 5679 5675 5671 5667 5663 5660 5656 5653 5649 5644 5639 5635 5631 5626 5622 5617 5612 5607 5603 5598 5592 5587 5581
5767 5767 5768 5768 5768 5768 5768 5768 5768 5768 5768 5769 5769 5768 5768 5768 5767 5766 5766 5765 5764 5763 5761 5760 5759 5757 5755 5753 5752 5750 5748 5746 5745 5743 5742 5740 5738 5737 5735 5734 5732 5730 5729 5727 5725 5723 5720 5718 5716 5713 5711 5709 5706 5703 5700 5697 5694 5691 5687 5685 5682 5679 5675 5672 5669 5665 5662 5657 5653 5649 5645 5642 5638 5633 5629 5624 5619 5615 5610 5605 5600 5596 5590 5585 5579
5764 5765 5765 5765 5766 5766 5766 5765 5765 5766 5766 5766 5766 5766 5765 5765 5764 5763 5763 5762 5761 5759 5758 5757 5755 5754 5752 5750 5748 5746 5745 5743 5742 5740 5739 5737 5735 5734 5732 5731 5729 5727 5726 5724 5722 5720 5717 5715 5713 5710 5708 5706 5703 5700 5697 5694 5692 5688 5685 5682 5679 5676 5672 5669 5665 5662 5659 5655 5650 5646 5642 5640 5636 5632 5627 5623 5618 5613 5608 5603 5599 5594 5589 5583 5578
5762 5762 5762 5763 5763 5763 5763 5763 5763 5763 5763 5764 5763 5762 5762 5762 5761 5760 5760 5759 5758 5756 5755 5753 5752 5750 5749 5747 5745 5743 5741 5740 5739 5737 5735 5734 5732 5730 5729 5727 5725 5724 5722 5720 5718 5716 5714 5712 5710 5707 5705 5702 5700 5697 5694 5692 5689 5686 5683 5679 5676 5673 5669 5665 5662 5658 5655 5652 5648 5644 5641 5637 5633 5630 5626 5622 5617 5612 5607 5602 5598 5593 5588 5582 5576
5759 5759 5760 5760 5760 5760 5760 5760 5760 5760 5761 5761 5760 5759 5759 5758 5758 5757 5756 5756 5755 5753 5751 5749 5748 5747 5745 5743 5741 5739 5738 5737 5735 5734 5732 5730 5729 5727 5725 5724 5722 5720 5719 5717 5715 5713 5711 5708 5706 5703 5701 5699 5696 5694 5691 5688 5685 5682 5680 5676 5673 5669 5666 5662 5659 5655 5652 5649 5646 5642 5639 5635 5630 5627 5624 5620 5616 5611 5606 5601 5597 5592 5587 5581 5575
5756 5756 5757 5757 5758 5758 5757 5757 5757 5758 5758 5758 5757 5756 5756 5755 5755 5754 5753 5752 5751 5750 5748 5746 5744 5743 5741 5739 5737 5735 5734 5733 5731 5730 5728 5727 5725 5723 5721 5720 5718 5717 5715 5713 5711 5709 5707 5704 5702 5700 5697 5695 5693 5690 5688 5685 5682 5679 5675 5672 5669 5666 5662 5659 5656 5653 5650 5646 5643 5639 5636 5633 5629 5625 5621 5618 5614 5610 5605 5601 5596 5592 5587 5581 5575
5753 5754 5754 5755 5755 5755 5755 5754 5754 5754 5754 5754 5754 5753 5753 5752 5751 5751 5750 5748 5747 5746 5744 5742 5741 5739 5737 5735 5733 5731 5730 5729 5728 5726 5724 5723 5721 5719 5718 5716 5714 5713 5711 5709 5707 5705 5702 5700 5698 5696 5693 5691 5689 5687 5684 5681 5678 5675 5671 5668 5665 5662 5659 5656 5653 5650 5647 5644 5640 5636 5633 5630 5627 5624 5620 5616 5612 5608 5604 5599 5596 5591 5587 5581 5576
5751 5751 5752 5752 5752 5752 5751 5751 5751 5751 5750 5750 5750 5750 5749 5748 5748 5747 5746 5745 5744 5742 5740 5738 5737 5736 5733 5731 5729 5727 5726 5725 5724 5722 5720 5719 5717 5715 5714 5712 5711 5709 5707 5705 5702 5700 5698 5696 5694 5691 5689 5687 5685 5683 5680 5677 5674 5671 5668 5664 5661 5658 5655 5653 5650 5647 5644 5641 5637 5634 5631 5628 5625 5622 5619 5615 5611 5607 5602 5598 5594 5591 5586 5582 5576